Sigfox identifier Datetime Temperature Humidity SNR
00388C81 2018-10-09 08:59:18 20.4 39 18
00388C81 2018-10-09 07:57:24 20.4 39 18
00388C81 2018-10-09 06:55:25 20.4 39 18
00388C81 2018-10-09 05:53:26 20.4 39 17.9
00388C81 2018-10-09 04:51:27 20.3 39 17.9
00388C81 2018-10-09 01:45:34 20.4 38 13.5
00388C81 2018-10-09 00:43:36 20.4 38 13.3
00388C81 2018-10-08 23:41:38 20.3 38 13.6
00388C81 2018-10-08 22:39:42 20.3 38 13.6
00388C81 2018-10-08 21:37:46 20.3 38 13.6
00388C81 2018-10-08 20:35:47 20.3 37 13.5
00388C81 2018-10-08 19:33:55 20.2 37 13.5
00388C81 2018-10-08 18:31:58 20.2 37 13.4
00388C81 2018-10-08 17:30:04 20.2 36 13.4
00388C81 2018-10-08 16:28:05 20.4 36 13.1
00388C81 2018-10-08 14:24:08 20.4 35 13
00388C81 2018-10-08 13:22:10 20.6 35 13.1
00388C81 2018-10-08 12:20:16 20.6 35 13.3
00388C81 2018-10-08 11:18:13 20.6 35 13.1
00388C81 2018-10-08 10:16:19 20.4 34 13
00388C81 2018-10-08 09:14:20 20.4 35 12.8
00388C81 2018-10-08 08:12:20 20.4 35 12.2
00388C81 2018-10-08 07:10:21 20.4 36 12.2
00388C81 2018-10-08 06:08:22 20.4 37 11.8
00388C81 2018-10-08 05:06:29 20.4 37 12.1
00388C81 2018-10-08 03:02:36 20.4 38 12
00388C81 2018-10-08 02:00:39 20.4 38 12
00388C81 2018-10-08 00:58:41 20.5 38 11.9
00388C81 2018-10-07 23:56:44 20.5 39 11.6
00388C81 2018-10-07 22:54:46 20.6 39 11.6
00388C81 2018-10-07 21:52:51 20.6 39 12.1
00388C81 2018-10-07 20:50:57 20.6 39 12.4
00388C81 2018-10-07 19:48:59 20.6 39 12.1
00388C81 2018-10-07 18:47:02 20.6 39 12.6
00388C81 2018-10-07 17:45:07 20.6 39 12.7
00388C81 2018-10-07 16:43:04 20.6 39 12.6
00388C81 2018-10-07 15:41:07 20.6 39 12.6
00388C81 2018-10-07 14:39:12 20.6 39 12.6
00388C81 2018-10-07 13:37:09 20.6 40 12.7
00388C81 2018-10-07 12:35:09 20.6 40 12.5
00388C81 2018-10-07 11:33:08 20.6 40 12.6
00388C81 2018-10-07 09:29:14 20.6 40 12.7
00388C81 2018-10-07 08:27:17 20.6 40 12.4
00388C81 2018-10-07 07:25:19 20.6 40 12.7
00388C81 2018-10-07 06:23:20 20.6 40 12.7
00388C81 2018-10-07 05:21:24 20.6 41 12.7
00388C81 2018-10-07 03:17:36 20.6 41 12.7
00388C81 2018-10-07 02:15:35 20.6 41 12.7
00388C81 2018-10-07 01:13:40 20.6 41 12.7
00388C81 2018-10-07 00:11:41 20.6 41 12.9
00388C81 2018-10-06 23:09:47 20.6 41 13
00388C81 2018-10-06 22:07:47 20.6 41 13.1
00388C81 2018-10-06 21:05:50 20.7 41 13.2
00388C81 2018-10-06 20:03:48 20.7 41 13.3
00388C81 2018-10-06 19:01:50 20.7 41 13.4
00388C81 2018-10-06 17:59:51 20.7 41 13.1
00388C81 2018-10-06 16:57:50 20.8 41 12.7
00388C81 2018-10-06 15:55:51 20.8 41 12.8
00388C81 2018-10-06 14:53:49 20.7 41 12
00388C81 2018-10-06 13:51:49 20.7 41 11.6
00388C81 2018-10-06 12:49:52 20.8 41 11.8
00388C81 2018-10-06 11:47:52 20.7 41 11.9
00388C81 2018-10-06 09:43:48 20.8 42 11.9
00388C81 2018-10-06 08:41:46 20.7 42 12
00388C81 2018-10-06 07:39:48 20.8 42 12.3
00388C81 2018-10-06 06:37:50 20.8 43 12.3
00388C81 2018-10-06 05:35:54 20.8 43 12.2
00388C81 2018-10-06 04:33:57 20.8 43 12.5
00388C81 2018-10-06 02:30:05 20.8 44 12.2
00388C81 2018-10-06 01:28:09 21 44 12.5
00388C81 2018-10-06 00:26:12 20.9 44 12.9
00388C81 2018-10-05 23:24:15 21 44 13.4
00388C81 2018-10-05 22:22:16 21 44 14
00388C81 2018-10-05 21:20:21 21.2 44 13.7
00388C81 2018-10-05 20:18:19 21.3 44 11.4
00388C81 2018-10-05 19:16:21 21.5 44 11.8
00388C81 2018-10-05 18:14:19 21.9 44 9.3
00388C81 2018-10-05 17:12:14 21.9 54 0